Location: ?????????
(53.2086°N, 54.0693°E)
Time: 05:44:35
(UTC+00:00)

AQUARIUS - Pass Details

Date: 08 December 2019
Orbit: 650 x 653 km, 98.0° (Epoch: 24 January)

Event Time Altitude Azimuth Distance (km) Brightness Sun altitude
Rises 13:21:39 0° 155° (SSE) 2,966 7.6 -10.4°
Reaches altitude 10° 13:23:51 10° 153° (SSE) 2,060 6.7 -10.7°
Maximum altitude 13:28:19 67° 72° (ENE) 712 4.1 -11.3°
Drops below altitude 10° 13:32:49 10° 350° (N) 2,075 6.6 -11.9°
Sets 13:35:03 0° 348° (NNW) 2,991 7.5 -12.3°
